SSEC Globe Logo

Space Science and Engineering Center

Surface Aviation Observations

KAIG 231315Z AUTO 07005KT 10SM CLR 17/12 A2980 RMK AO2
     T01660120=
KAIG 231315Z AUTO 07005KT 10SM CLR 17/12 A2980 RMK AO2
     T01660120=
KAIG 231255Z AUTO 05005KT 10SM CLR 15/12 A2980 RMK AO2
     T01540117=
KAIG 231255Z AUTO 05005KT 10SM CLR 15/12 A2980 RMK AO2
     T01540117=
KC29 231315Z AUTO 05003KT 10SM CLR 19/14 A2977 RMK AO1
     T01900140=
KC29 231315Z AUTO 05003KT 10SM CLR 19/14 A2977 RMK AO1
     T01900140=
KC29 231255Z AUTO 03003KT 10SM CLR 19/14 A2977 RMK AO1
     T01860136=
KC29 231255Z AUTO 03003KT 10SM CLR 19/14 A2977 RMK AO1
     T01860136=
KBCK 231315Z AUTO 00000KT 10SM CLR 17/16 A2978 RMK AO2
     T01700157=
KBCK 231315Z AUTO 00000KT 10SM CLR 17/16 A2978 RMK AO2
     T01700157=
KBCK 231255Z AUTO 00000KT 10SM CLR 16/16 A2977 RMK AO2
     T01620161=
KBCK 231255Z AUTO 00000KT 10SM CLR 16/16 A2977 RMK AO2
     T01620161=
KUBE 231315Z AUTO 00000KT 10SM CLR 17/15 A2979 RMK AO2=
KUBE 231315Z AUTO 00000KT 10SM CLR 17/15 A2979 RMK AO2=
KUBE 231255Z AUTO 00000KT 10SM CLR 17/15 A2979 RMK AO2=
KUBE 231255Z AUTO 00000KT 10SM CLR 17/15 A2979 RMK AO2=
KPVB 231315Z AUTO 07004KT 10SM CLR 19/16 A2978 RMK AO1
     T01900156=
KPVB 231315Z AUTO 07004KT 10SM CLR 19/16 A2978 RMK AO1
     T01900156=
KPVB 231255Z AUTO 03004KT 10SM CLR 18/16 A2978 RMK AO1
     T01820162=
KPVB 231255Z AUTO 03004KT 10SM CLR 18/16 A2978 RMK AO1
     T01820162=
KEZS 231315Z AUTO 06005KT 10SM CLR 18/11 A2978 RMK AO2
     T01840111=
KEZS 231315Z AUTO 06005KT 10SM CLR 18/11 A2978 RMK AO2
     T01840111=
KEZS 231255Z AUTO 05006KT 10SM CLR 18/11 A2978 RMK AO2
     T01750109=
KEZS 231255Z AUTO 05006KT 10SM CLR 18/11 A2978 RMK AO2
     T01750109=
KARV 231315Z AUTO 00000KT 10SM CLR 19/12 A2979 RMK AO2
     T01860120=
KARV 231315Z AUTO 00000KT 10SM CLR 19/12 A2979 RMK AO2
     T01860120=
KARV 231255Z AUTO 00000KT 10SM CLR 18/12 A2979 RMK AO2
     T01800124=
KARV 231255Z AUTO 00000KT 10SM CLR 18/12 A2979 RMK AO2
     T01800124=
KASX 231253Z AUTO 00000KT 10SM CLR 16/13 A2978 RMK AO2
     SLP086 T01560133=
KASX 231253Z AUTO 00000KT 10SM CLR 16/13 A2978 RMK AO2
     SLP086 T01560133=
KATW 231245Z 02008KT 10SM SCT120 16/10 A2976=
KATW 231245Z 02008KT 10SM SCT120 16/10 A2976=
KAUW 231254Z AUTO 00000KT 10SM CLR 17/11 A2978 RMK AO2
     SLP083 T01720106=
KAUW 231254Z AUTO 00000KT 10SM CLR 17/11 A2978 RMK AO2
     SLP083 T01720106=
KBUU 231315Z AUTO 01005KT 10SM SCT110 19/14 A2975 RMK AO2
     T01890137=
KBUU 231315Z AUTO 01005KT 10SM SCT110 19/14 A2975 RMK AO2
     T01890137=
KBUU 231255Z AUTO 36007KT 10SM SCT110 18/14 A2975 RMK AO2
     T01790135=
KBUU 231255Z AUTO 36007KT 10SM SCT110 18/14 A2975 RMK AO2
     T01790135=
KCMY 231315Z AUTO 00000KT 10SM CLR 15/14 A2978 RMK AO2
     T01520135=
KCMY 231315Z AUTO 00000KT 10SM CLR 15/14 A2978 RMK AO2
     T01520135=
KCMY 231255Z AUTO 00000KT 10SM CLR 14/13 A2978 RMK AO2
     T01420131=
KCMY 231255Z AUTO 00000KT 10SM CLR 14/13 A2978 RMK AO2
     T01420131=
KCWA 231247Z 04003KT 10SM SCT250 16/12 A2980=
KCWA 231247Z 04003KT 10SM SCT250 16/12 A2980=
KDLL 231315Z AUTO 06003KT 10SM CLR 18/12 A2977 RMK AO2
     T01750116=
KDLL 231315Z AUTO 06003KT 10SM CLR 18/12 A2977 RMK AO2
     T01750116=
KDLL 231255Z AUTO 00000KT 10SM CLR 17/12 A2977 RMK AO2
     T01710116=
KDLL 231255Z AUTO 00000KT 10SM CLR 17/12 A2977 RMK AO2
     T01710116=
KEAU 231256Z 00000KT 10SM CLR 19/16 A2977 RMK AO2 SLP075
     T01890156=
KEAU 231256Z 00000KT 10SM CLR 19/16 A2977 RMK AO2 SLP075
     T01890156=
KEFT 231315Z AUTO 03006KT 10SM CLR 19/13 A2976 RMK AO2
     T01850134=
KEFT 231315Z AUTO 03006KT 10SM CLR 19/13 A2976 RMK AO2
     T01850134=
KEFT 231255Z AUTO 01006KT 10SM CLR 18/13 A2977 RMK AO2
     T01770132=
KEFT 231255Z AUTO 01006KT 10SM CLR 18/13 A2977 RMK AO2
     T01770132=
KEGV 231315Z AUTO 28003KT 10SM CLR 18/11 A2980 RMK AO2
     T01750110=
KEGV 231315Z AUTO 28003KT 10SM CLR 18/11 A2980 RMK AO2
     T01750110=
KEGV 231255Z AUTO 00000KT 10SM CLR 16/12 A2978 RMK AO2
     T01630115=
KEGV 231255Z AUTO 00000KT 10SM CLR 16/12 A2978 RMK AO2
     T01630115=
KENW 231253Z 35005KT 10SM OVC100 19/14 A2975 RMK AO2 SLP073
     T01890139=
KENW 231253Z 35005KT 10SM OVC100 19/14 A2975 RMK AO2 SLP073
     T01890139=
KETB 231315Z AUTO 33005KT 10SM CLR 17/13 A2977 RMK AO2=
KETB 231315Z AUTO 33005KT 10SM CLR 17/13 A2977 RMK AO2=
KETB 231255Z AUTO 36004KT 10SM CLR 16/12 A2976 RMK AO2=
KETB 231255Z AUTO 36004KT 10SM CLR 16/12 A2976 RMK AO2=
KFLD 231253Z AUTO 01006KT 10SM CLR 18/14 A2977 RMK AO2
     SLP077 T01780139=
KFLD 231253Z AUTO 01006KT 10SM CLR 18/14 A2977 RMK AO2
     SLP077 T01780139=
KGRB 231253Z 02005KT 10SM CLR 17/13 A2978 RMK AO2 SLP083
     T01670128=
KGRB 231253Z 02005KT 10SM CLR 17/13 A2978 RMK AO2 SLP083
     T01670128=
KHYR 231253Z AUTO 00000KT 10SM CLR 17/14 A2979 RMK AO2
     SLP085 T01720144=
KHYR 231253Z AUTO 00000KT 10SM CLR 17/14 A2979 RMK AO2
     SLP085 T01720144=
KISW 231254Z AUTO VRB05KT 10SM CLR 19/11 A2978 RMK AO2
     SLP081 T01890106 TSNO=
KISW 231254Z AUTO VRB05KT 10SM CLR 19/11 A2978 RMK AO2
     SLP081 T01890106 TSNO=
KJVL 231245Z 03006KT 10SM SCT150 19/13 A2975=
KJVL 231245Z 03006KT 10SM SCT150 19/13 A2975=
KLNL 231315Z AUTO 00000KT 10SM CLR 18/12 A2981 RMK AO2
     T01800118=
KLNL 231315Z AUTO 00000KT 10SM CLR 18/12 A2981 RMK AO2
     T01800118=
KLNL 231255Z AUTO 00000KT 10SM CLR 17/11 A2981 RMK AO2
     T01660109=
KLNL 231255Z AUTO 00000KT 10SM CLR 17/11 A2981 RMK AO2
     T01660109=
KLNR 231256Z AUTO 13004KT 10SM CLR 18/15 A2976 RMK AO2
     SLP069 T01830150=
KLNR 231256Z AUTO 13004KT 10SM CLR 18/15 A2976 RMK AO2
     SLP069 T01830150=
KLSE 231253Z 35004KT 9SM BKN005 20/17 A2977 RMK AO2 SLP073
     T02000172 $=
KLSE 231253Z 35004KT 9SM BKN005 20/17 A2977 RMK AO2 SLP073
     T02000172 $=
KLUM 231315Z AUTO 00000KT 10SM CLR 18/16 A2979 RMK AO2
     T01830155=
KLUM 231315Z AUTO 00000KT 10SM CLR 18/16 A2979 RMK AO2
     T01830155=
KLUM 231255Z AUTO 00000KT 10SM CLR 17/15 A2978 RMK AO2
     T01720149=
KLUM 231255Z AUTO 00000KT 10SM CLR 17/15 A2978 RMK AO2
     T01720149=
KMDZ 231315Z AUTO 00000KT 10SM CLR 17/13 A2979 RMK AO2
     T01730125=
KMDZ 231315Z AUTO 00000KT 10SM CLR 17/13 A2979 RMK AO2
     T01730125=
KMDZ 231255Z AUTO 00000KT 10SM CLR 16/13 A2979 RMK AO2
     T01590129=
KMDZ 231255Z AUTO 00000KT 10SM CLR 16/13 A2979 RMK AO2
     T01590129=
KMFI 231254Z AUTO 03003KT 10SM CLR 18/12 A2978 RMK AO2
     SLP079 T01830117 TSNO=
KMFI 231254Z AUTO 03003KT 10SM CLR 18/12 A2978 RMK AO2
     SLP079 T01830117 TSNO=
KMKE 231252Z 34005KT 10SM SCT110 BKN250 18/13 A2975 RMK AO2
     SLP071 T01780133=
KMKE 231252Z 34005KT 10SM SCT110 BKN250 18/13 A2975 RMK AO2
     SLP071 T01780133=
KMRJ 231315Z AUTO 04007KT 10SM CLR 20/15 A2977 RMK AO2=
KMRJ 231315Z AUTO 04007KT 10SM CLR 20/15 A2977 RMK AO2=
KMRJ 231255Z AUTO 05006KT 10SM CLR 20/15 A2977 RMK AO2=
KMRJ 231255Z AUTO 05006KT 10SM CLR 20/15 A2977 RMK AO2=
KMSN 231253Z 02006KT 10SM FEW110 BKN250 19/14 A2976 RMK AO2
     SLP073 T01890139=
KMSN 231253Z 02006KT 10SM FEW110 BKN250 19/14 A2976 RMK AO2
     SLP073 T01890139=
KMTW 231256Z AUTO 36003KT 10SM CLR 16/12 A2977 RMK AO2
     SLP098 T01610117=
KMTW 231256Z AUTO 36003KT 10SM CLR 16/12 A2977 RMK AO2
     SLP098 T01610117=
KMWC 231245Z 33007KT 10SM SCT120 17/11 A2976=
KMWC 231245Z 33007KT 10SM SCT120 17/11 A2976=
KOEO 231315Z AUTO 00000KT 10SM CLR 19/16 A2981 RMK AO2
     T01930156=
KOEO 231315Z AUTO 00000KT 10SM CLR 19/16 A2981 RMK AO2
     T01930156=
KOEO 231255Z AUTO 00000KT 10SM CLR 19/16 A2980 RMK AO2
     T01850158=
KOEO 231255Z AUTO 00000KT 10SM CLR 19/16 A2980 RMK AO2
     T01850158=
KOSH 231253Z 02006KT 10SM CLR 17/13 A2977 RMK AO2 SLP071
     T01720133=
KOSH 231253Z 02006KT 10SM CLR 17/13 A2977 RMK AO2 SLP071
     T01720133=
KOVS 231253Z AUTO 36005KT 10SM CLR 19/15 A2976 RMK AO2
     SLP077 T01890150 TSNO=
KOVS 231253Z AUTO 36005KT 10SM CLR 19/15 A2976 RMK AO2
     SLP077 T01890150 TSNO=
KPBH 231315Z AUTO 00000KT 10SM CLR 18/13 A2979 RMK AO2
     T01790126=
KPBH 231315Z AUTO 00000KT 10SM CLR 18/13 A2979 RMK AO2
     T01790126=
KPBH 231255Z AUTO 00000KT 10SM CLR 17/13 A2980 RMK AO2
     T01650130=
KPBH 231255Z AUTO 00000KT 10SM CLR 17/13 A2980 RMK AO2
     T01650130=
KPCZ 231315Z AUTO 09004KT 10SM CLR 19/12 A2977 RMK AO2
     T01860120=
KPCZ 231315Z AUTO 09004KT 10SM CLR 19/12 A2977 RMK AO2
     T01860120=
KPCZ 231255Z AUTO 01003KT 10SM CLR 18/12 A2978 RMK AO2
     T01800117=
KPCZ 231255Z AUTO 01003KT 10SM CLR 18/12 A2978 RMK AO2
     T01800117=
KPDC 231315Z AUTO 00000KT 10SM SCT001 18/17 A2977 RMK AO2
     T01790167=
KPDC 231315Z AUTO 00000KT 10SM SCT001 18/17 A2977 RMK AO2
     T01790167=
KPDC 231255Z AUTO 00000KT 2SM BR OVC001 17/16 A2978 RMK AO2
     T01680162=
KPDC 231255Z AUTO 00000KT 2SM BR OVC001 17/16 A2978 RMK AO2
     T01680162=
KRAC 231253Z AUTO 34005KT 10SM BKN100 BKN120 18/13 A2976 RMK
     AO2 RAE00B22E27 SLP076 P0000 T01780133=
KRAC 231253Z AUTO 34005KT 10SM BKN100 BKN120 18/13 A2976 RMK
     AO2 RAE00B22E27 SLP076 P0000 T01780133=
KRCX 231315Z AUTO 00000KT 10SM CLR 18/13 A2980 RMK AO2
     T01760134=
KRCX 231315Z AUTO 00000KT 10SM CLR 18/13 A2980 RMK AO2
     T01760134=
KRCX 231255Z AUTO 00000KT 10SM CLR 17/13 A2980 RMK AO2
     T01650131=
KRCX 231255Z AUTO 00000KT 10SM CLR 17/13 A2980 RMK AO2
     T01650131=
KRHI 231253Z AUTO 00000KT 10SM CLR 18/13 A2980 RMK AO2
     SLP085 T01780128=
KRHI 231253Z AUTO 00000KT 10SM CLR 18/13 A2980 RMK AO2
     SLP085 T01780128=
KRNH 231315Z AUTO 00000KT 10SM CLR 19/14 A2979 RMK AO2
     T01920138=
KRNH 231315Z AUTO 00000KT 10SM CLR 19/14 A2979 RMK AO2
     T01920138=
KRNH 231255Z AUTO 00000KT 10SM CLR 18/14 A2978 RMK AO2
     T01800144=
KRNH 231255Z AUTO 00000KT 10SM CLR 18/14 A2978 RMK AO2
     T01800144=
KRPD 231315Z AUTO 00000KT 10SM CLR 18/14 A2980 RMK AO2
     T01840142=
KRPD 231315Z AUTO 00000KT 10SM CLR 18/14 A2980 RMK AO2
     T01840142=
KRPD 231255Z AUTO 00000KT 10SM CLR 18/14 A2980 RMK AO2
     T01760141=
KRPD 231255Z AUTO 00000KT 10SM CLR 18/14 A2980 RMK AO2
     T01760141=
KRRL 231315Z AUTO 00000KT 10SM CLR 15/12 A2980 RMK AO2
     T01520121 TSNO=
KRRL 231315Z AUTO 00000KT 10SM CLR 15/12 A2980 RMK AO2
     T01520121 TSNO=
KRRL 231255Z AUTO 00000KT 10SM CLR 14/11 A2980 RMK AO2
     T01400114 TSNO=
KRRL 231255Z AUTO 00000KT 10SM CLR 14/11 A2980 RMK AO2
     T01400114 TSNO=
KRYV 231315Z AUTO 01005KT 10SM CLR 18/15 A2976 RMK AO2
     T01780150=
KRYV 231315Z AUTO 01005KT 10SM CLR 18/15 A2976 RMK AO2
     T01780150=
KRYV 231255Z AUTO 35007KT 10SM CLR 17/15 A2977 RMK AO2
     T01720152=
KRYV 231255Z AUTO 35007KT 10SM CLR 17/15 A2977 RMK AO2
     T01720152=
KRZN 231315Z AUTO 00000KT 10SM CLR 20/16 A2978 RMK AO2
     T01970163=
KRZN 231315Z AUTO 00000KT 10SM CLR 20/16 A2978 RMK AO2
     T01970163=
KRZN 231255Z AUTO 00000KT 10SM CLR 19/16 A2978 RMK AO2
     T01860158=
KRZN 231255Z AUTO 00000KT 10SM CLR 19/16 A2978 RMK AO2
     T01860158=
KSBM 231253Z AUTO 03006KT 10SM CLR 16/12 A2976 RMK AO2
     SLP074 T01610117 TSNO=
KSBM 231253Z AUTO 03006KT 10SM CLR 16/12 A2976 RMK AO2
     SLP074 T01610117 TSNO=
KSTE 231315Z AUTO 06004KT 10SM CLR 17/11 A2978 RMK AO2
     T01690105=
KSTE 231315Z AUTO 06004KT 10SM CLR 17/11 A2978 RMK AO2
     T01690105=
KSTE 231255Z AUTO 00000KT 10SM CLR 16/10 A2979 RMK AO2
     T01580104=
KSTE 231255Z AUTO 00000KT 10SM CLR 16/10 A2979 RMK AO2
     T01580104=
KSUE 231256Z AUTO 36008KT 10SM 17/11 A2979 RMK AO2 SLP106
     T01670106=
KSUE 231256Z AUTO 36008KT 10SM 17/11 A2979 RMK AO2 SLP106
     T01670106=
KSUW 231315Z AUTO 00000KT 10SM CLR 14/10 A2980 RMK AO2
     T01390104=
KSUW 231315Z AUTO 00000KT 10SM CLR 14/10 A2980 RMK AO2
     T01390104=
KSUW 231255Z AUTO 00000KT 10SM CLR 13/10 A2980 RMK AO2
     T01260096=
KSUW 231255Z AUTO 00000KT 10SM CLR 13/10 A2980 RMK AO2
     T01260096=
KTKV 231315Z AUTO 00000KT 10SM CLR 16/13 A2980 RMK AO2
     T01560130=
KTKV 231315Z AUTO 00000KT 10SM CLR 16/13 A2980 RMK AO2
     T01560130=
KTKV 231255Z AUTO 00000KT 10SM CLR 14/13 A2981 RMK AO2
     T01400130=
KTKV 231255Z AUTO 00000KT 10SM CLR 14/13 A2981 RMK AO2
     T01400130=
KUES 231245Z 32003KT 10SM SKC 17/12 A2977=
KUES 231245Z 32003KT 10SM SKC 17/12 A2977=
KUNU 231315Z AUTO 00000KT 10SM CLR 17/14 A2978 RMK AO2
     T01710139=
KUNU 231315Z AUTO 00000KT 10SM CLR 17/14 A2978 RMK AO2
     T01710139=
KUNU 231255Z AUTO 01005KT 10SM CLR 17/14 A2978 RMK AO2
     T01650135=
KUNU 231255Z AUTO 01005KT 10SM CLR 17/14 A2978 RMK AO2
     T01650135=
KVOK 231256Z 00000KT 10SM BKN200 17/17 A2977 RMK AO2A
     SLP081=
KVOK 231256Z 00000KT 10SM BKN200 17/17 A2977 RMK AO2A
     SLP081=
KVOK 231256Z 00000KT 10SM BKN200 17/17 A2977 RMK AO2A
     SLP081=
METAR KVOK 231256Z 00000KT 10SM BKN200 17/17 A2977 RMK AO2A
     SLP081=
METAR KVOK 231256Z 00000KT 10SM BKN200 17/17 A2977 RMK AO2A
     SLP081=
KY50 231256Z AUTO 05004KT 10SM CLR 18/11 A2978 RMK AO2
     SLP100 T01780111=
KY50 231256Z AUTO 05004KT 10SM CLR 18/11 A2978 RMK AO2
     SLP100 T01780111=
KY51 231315Z AUTO 00000KT 10SM CLR 19/14 A2979 RMK AO1
     T01910140=
KY51 231315Z AUTO 00000KT 10SM CLR 19/14 A2979 RMK AO1
     T01910140=
KY51 231255Z AUTO 00000KT 10SM CLR 18/15 A2979 RMK AO1
     T01810151=
KY51 231255Z AUTO 00000KT 10SM CLR 18/15 A2979 RMK AO1
     T01810151=
KY23 231315Z AUTO 00000KT 10SM CLR 18/15 A2979 RMK AO2
     T01810152=
KY23 231315Z AUTO 00000KT 10SM CLR 18/15 A2979 RMK AO2
     T01810152=
KY23 231255Z AUTO 00000KT 10SM CLR 17/15 A2979 RMK AO2
     T01720147=
KY23 231255Z AUTO 00000KT 10SM CLR 17/15 A2979 RMK AO2
     T01720147=
K3D2 231315Z AUTO 36005KT 10SM CLR 16/11 A2979 RMK AO2
     T01570108=
K3D2 231315Z AUTO 36005KT 10SM CLR 16/11 A2979 RMK AO2
     T01570108=
K3D2 231255Z AUTO 01005KT 10SM CLR 15/11 A2980 RMK AO2
     T01520105=
K3D2 231255Z AUTO 01005KT 10SM CLR 15/11 A2980 RMK AO2
     T01520105=
KD25 231315Z AUTO 00000KT 10SM CLR 18/13 A2980 RMK AO2
     T01780131=
KD25 231315Z AUTO 00000KT 10SM CLR 18/13 A2980 RMK AO2
     T01780131=
KD25 231255Z AUTO 00000KT 10SM CLR 17/14 A2980 RMK AO2
     T01710143=
KD25 231255Z AUTO 00000KT 10SM CLR 17/14 A2980 RMK AO2
     T01710143=
K82C 231315Z AUTO 31003KT 10SM CLR 18/14 A2977 RMK AO2
     T01840139=
K82C 231315Z AUTO 31003KT 10SM CLR 18/14 A2977 RMK AO2
     T01840139=
K82C 231255Z AUTO 00000KT 10SM CLR 18/14 A2977 RMK AO2
     T01800136=
K82C 231255Z AUTO 00000KT 10SM CLR 18/14 A2977 RMK AO2
     T01800136=
KOCQ 231315Z AUTO 04005KT 10SM CLR 16/11 A2977 RMK AO1
     T01640110=
KOCQ 231315Z AUTO 04005KT 10SM CLR 16/11 A2977 RMK AO1
     T01640110=
KOCQ 231255Z AUTO 03006KT 10SM CLR 16/11 A2977 RMK AO1
     T01550109=
KOCQ 231255Z AUTO 03006KT 10SM CLR 16/11 A2977 RMK AO1
     T01550109=
KC35 231315Z AUTO 00000KT 10SM CLR 18/14 A2976 RMK AO2
     T01780136=
KC35 231315Z AUTO 00000KT 10SM CLR 18/14 A2976 RMK AO2
     T01780136=
KC35 231255Z AUTO 00000KT 10SM CLR 17/14 A2977 RMK AO2
     T01660143=
KC35 231255Z AUTO 00000KT 10SM CLR 17/14 A2977 RMK AO2
     T01660143=
KOLG 231315Z AUTO 02003KT 10SM CLR 17/15 A2979 RMK AO1=
KOLG 231315Z AUTO 02003KT 10SM CLR 17/15 A2979 RMK AO1=
KOLG 231255Z AUTO 03004KT 10SM CLR 15/13 A2978 RMK AO1=
KOLG 231255Z AUTO 03004KT 10SM CLR 15/13 A2978 RMK AO1=
K2P2 231310Z AUTO 36005KT 10SM CLR 16/12 A2980 RMK AO2
     T01570117=
K2P2 231250Z AUTO 34004KT 10SM CLR 15/12 A2980 RMK AO2
     T01530115=
K2P2 231250Z AUTO 34004KT 10SM CLR 15/12 A2980 RMK AO2
     T01530115=
KDBQ 231253Z 04008KT 10SM CLR 18/14 A2977 RMK AO2 SLP078
     T01780144=
KDBQ 231253Z 04008KT 10SM CLR 18/14 A2977 RMK AO2 SLP078
     T01780144=
KRST 231254Z 29004KT 10SM CLR 20/17 A2980 RMK AO2 SLP085
     T02000172=
KRST 231254Z 29004KT 10SM CLR 20/17 A2980 RMK AO2 SLP085
     T02000172=
KMSP 231253Z 00000KT 8SM BKN250 21/17 A2977 RMK AO2 SLP076
     T02110172=
KMSP 231253Z 00000KT 8SM BKN250 21/17 A2977 RMK AO2 SLP076
     T02110172=
KRFD 231254Z 02003KT 10SM FEW075 18/13 A2978 RMK AO2 SLP080
     T01780133=
KRFD 231254Z 02003KT 10SM FEW075 18/13 A2978 RMK AO2 SLP080
     T01780133=
KORD 231251Z 36007KT 10SM FEW045 SCT060 SCT080 BKN250 19/14
     A2973 RMK AO2 SLP066 T01890139=
KORD 231251Z 36007KT 10SM FEW045 SCT060 SCT080 BKN250 19/14
     A2973 RMK AO2 SLP066 T01890139=